ITY3BJ EDDF-LIRF

Flight info

Callsign ITY3BJ
Flight time 0h 59m
Altitude 35000
Route CINDY8S/18 CINDY Z74 LAMPU DCT NOMBO Y161 RIDAR DCT KONIN DCT BERAS DCT LIKDA DCT BAKOR DCT VESAL DCT VIC DCT KOPER DCT SUKOM DCT GAVRA DCT RITEB RITEB4A
Aircraft A320/M-SDE3FGHIRWY/LB1

Departure

Time 2026-05-05 18:59
Airport Frankfurt Main Airport (EDDF)

Arrival

Time 2026-05-05 19:58
Airport Rome–Fiumicino Leonardo da Vinci International Airport (LIRF)
Time Latitude Longitude Altitude Speed Heading
2026-05-05 18:25 50.04753 8.56878 360 ft 0 kts 295°
2026-05-05 18:40 50.04750 8.56890 356 ft 4 kts 295°
2026-05-05 18:41 50.04738 8.56927 355 ft 4 kts 298°
2026-05-05 18:41 50.04727 8.56956 354 ft 4 kts 291°
2026-05-05 18:41 50.04727 8.56987 358 ft 4 kts 218°
2026-05-05 18:41 50.04748 8.57007 355 ft 4 kts 205°
2026-05-05 18:42 50.04773 8.57023 355 ft 4 kts 200°
2026-05-05 18:42 50.04791 8.57034 358 ft 0 kts 205°
2026-05-05 18:44 50.04791 8.57033 358 ft 1 kts 205°
2026-05-05 18:44 50.04762 8.57012 355 ft 7 kts 205°
2026-05-05 18:44 50.04699 8.56966 358 ft 13 kts 204°
2026-05-05 18:45 50.04601 8.56909 354 ft 16 kts 192°
2026-05-05 18:45 50.04493 8.56869 354 ft 14 kts 194°
2026-05-05 18:45 50.04433 8.56753 356 ft 15 kts 249°
2026-05-05 18:45 50.04391 8.56574 357 ft 20 kts 250°
2026-05-05 18:46 50.04343 8.56376 357 ft 14 kts 249°
2026-05-05 18:46 50.04340 8.56362 358 ft 0 kts 250°
2026-05-05 18:46 50.04327 8.56310 354 ft 12 kts 250°
2026-05-05 18:46 50.04287 8.56138 355 ft 18 kts 249°
2026-05-05 18:47 50.04271 8.56073 354 ft 0 kts 249°
2026-05-05 18:48 50.04262 8.56034 357 ft 9 kts 249°
2026-05-05 18:48 50.04223 8.55871 360 ft 21 kts 249°
2026-05-05 18:49 50.04167 8.55640 359 ft 25 kts 249°
2026-05-05 18:49 50.04103 8.55367 356 ft 27 kts 250°
2026-05-05 18:49 50.04035 8.55085 356 ft 28 kts 249°
2026-05-05 18:49 50.03968 8.54804 358 ft 28 kts 249°
2026-05-05 18:50 50.03902 8.54529 356 ft 25 kts 250°
2026-05-05 18:50 50.03849 8.54344 357 ft 18 kts 234°
2026-05-05 18:50 50.03787 8.54166 355 ft 19 kts 249°
2026-05-05 18:50 50.03738 8.53963 355 ft 21 kts 249°
2026-05-05 18:51 50.03687 8.53748 355 ft 23 kts 250°
2026-05-05 18:51 50.03623 8.53496 354 ft 25 kts 249°
2026-05-05 18:51 50.03571 8.53275 355 ft 20 kts 249°
2026-05-05 18:51 50.03536 8.53129 355 ft 9 kts 249°
2026-05-05 18:52 50.03521 8.53064 354 ft 0 kts 250°
2026-05-05 18:53 50.03520 8.53064 354 ft 0 kts 250°
2026-05-05 18:53 50.03515 8.53039 358 ft 4 kts 250°
2026-05-05 18:54 50.03504 8.52995 356 ft 4 kts 250°
2026-05-05 18:54 50.03498 8.52968 354 ft 2 kts 250°
2026-05-05 18:54 50.03495 8.52958 354 ft 1 kts 250°
2026-05-05 18:54 50.03491 8.52938 358 ft 3 kts 250°
2026-05-05 18:55 50.03478 8.52887 354 ft 5 kts 247°
2026-05-05 18:55 50.03465 8.52843 354 ft 4 kts 245°
2026-05-05 18:55 50.03452 8.52797 356 ft 4 kts 246°
2026-05-05 18:55 50.03445 8.52774 358 ft 0 kts 246°
2026-05-05 18:56 50.03440 8.52754 359 ft 3 kts 249°
2026-05-05 18:56 50.03437 8.52743 359 ft 0 kts 249°
2026-05-05 18:56 50.03435 8.52734 355 ft 0 kts 249°
2026-05-05 18:57 50.03425 8.52690 357 ft 9 kts 249°
2026-05-05 18:57 50.03393 8.52595 357 ft 9 kts 209°
2026-05-05 18:57 50.03366 8.52593 356 ft 0 kts 179°
2026-05-05 18:58 50.03364 8.52593 356 ft 3 kts 179°
2026-05-05 18:58 50.03157 8.52596 358 ft 65 kts 180°
2026-05-05 18:59 50.02495 8.52602 358 ft 123 kts 180°
2026-05-05 18:59 50.01469 8.52608 360 ft 169 kts 180°
2026-05-05 18:59 50.00317 8.52618 1005 ft 159 kts 180°
2026-05-05 18:59 49.99205 8.52633 1610 ft 162 kts 182°
2026-05-05 19:00 49.98023 8.52691 1912 ft 182 kts 173°
2026-05-05 19:00 49.96784 8.53413 2143 ft 207 kts 148°
2026-05-05 19:00 49.95738 8.55119 2428 ft 231 kts 122°
2026-05-05 19:00 49.94950 8.57327 3067 ft 236 kts 121°
2026-05-05 19:01 49.94240 8.59648 3811 ft 241 kts 108°
2026-05-05 19:01 49.93971 8.62310 4220 ft 263 kts 94°
2026-05-05 19:01 49.93867 8.65239 4774 ft 276 kts 95°
2026-05-05 19:01 49.93473 8.68155 5521 ft 278 kts 114°
2026-05-05 19:02 49.92470 8.70707 6312 ft 278 kts 135°
2026-05-05 19:02 49.90994 8.72618 7077 ft 277 kts 148°
2026-05-05 19:02 49.89422 8.74376 7839 ft 282 kts 143°
2026-05-05 19:02 49.87927 8.76374 8599 ft 285 kts 143°
2026-05-05 19:03 49.86386 8.78352 9358 ft 289 kts 144°
2026-05-05 19:03 49.84825 8.80331 10029 ft 295 kts 143°
2026-05-05 19:03 49.83166 8.82400 10218 ft 318 kts 142°
2026-05-05 19:03 49.81511 8.84879 10362 ft 342 kts 136°
2026-05-05 19:04 49.79842 8.87616 10725 ft 356 kts 135°
2026-05-05 19:04 49.78162 8.90470 11345 ft 361 kts 134°
2026-05-05 19:04 49.76476 8.93368 12015 ft 364 kts 134°
2026-05-05 19:04 49.74771 8.96294 12662 ft 368 kts 134°
2026-05-05 19:05 49.73044 8.99237 13301 ft 371 kts 135°
2026-05-05 19:05 49.71295 9.02190 13905 ft 374 kts 135°
2026-05-05 19:05 49.69522 9.05164 14446 ft 378 kts 135°
2026-05-05 19:05 49.67729 9.08156 14968 ft 382 kts 135°
2026-05-05 19:06 49.65917 9.11175 15571 ft 384 kts 135°
2026-05-05 19:06 49.64096 9.14204 16169 ft 386 kts 135°
2026-05-05 19:06 49.62263 9.17257 16762 ft 388 kts 135°
2026-05-05 19:06 49.60423 9.20326 17331 ft 391 kts 135°
2026-05-05 19:07 49.58574 9.23406 17946 ft 392 kts 135°
2026-05-05 19:07 49.57343 9.25456 18297 ft 394 kts 135°
2026-05-05 19:07 49.54844 9.29615 18968 ft 397 kts 135°
2026-05-05 19:07 49.52962 9.32743 19488 ft 399 kts 135°
2026-05-05 19:08 49.51071 9.35877 19984 ft 401 kts 135°
2026-05-05 19:08 49.49167 9.39025 20475 ft 403 kts 135°
2026-05-05 19:08 49.47250 9.42190 20940 ft 405 kts 134°
2026-05-05 19:08 49.45980 9.44287 21232 ft 406 kts 135°
2026-05-05 19:09 49.44047 9.47469 21689 ft 408 kts 135°
2026-05-05 19:09 49.42103 9.50666 22125 ft 411 kts 135°
2026-05-05 19:09 49.40144 9.53882 22557 ft 413 kts 135°
2026-05-05 19:09 49.37514 9.58200 23109 ft 416 kts 134°
2026-05-05 19:10 49.36201 9.60357 23379 ft 417 kts 134°
2026-05-05 19:10 49.34215 9.63615 23717 ft 419 kts 135°
2026-05-05 19:10 49.32216 9.66889 23998 ft 422 kts 135°
2026-05-05 19:10 49.29545 9.71251 24416 ft 425 kts 135°
2026-05-05 19:11 49.28175 9.73483 24646 ft 426 kts 135°
2026-05-05 19:11 49.26144 9.76788 24967 ft 427 kts 135°
2026-05-05 19:11 49.24095 9.80110 25268 ft 429 kts 135°
2026-05-05 19:11 49.22045 9.83434 25592 ft 430 kts 135°
2026-05-05 19:12 49.19995 9.86763 25898 ft 431 kts 135°
2026-05-05 19:12 49.17934 9.90114 26197 ft 433 kts 135°
2026-05-05 19:12 49.15868 9.93465 26505 ft 434 kts 135°
2026-05-05 19:12 49.13792 9.96822 26784 ft 435 kts 135°
2026-05-05 19:13 49.11712 10.00179 27071 ft 437 kts 135°
2026-05-05 19:13 49.09615 10.03462 27329 ft 437 kts 140°
2026-05-05 19:13 49.07135 10.06097 27621 ft 434 kts 152°
2026-05-05 19:13 49.04510 10.08382 27892 ft 435 kts 152°
2026-05-05 19:14 49.01837 10.10680 28151 ft 436 kts 152°
2026-05-05 19:14 48.99194 10.12939 28391 ft 437 kts 153°
2026-05-05 19:14 48.96534 10.15214 28603 ft 438 kts 153°
2026-05-05 19:14 48.93884 10.17479 28971 ft 436 kts 153°
2026-05-05 19:15 48.91248 10.19733 29363 ft 434 kts 153°
2026-05-05 19:15 48.88617 10.21982 29723 ft 432 kts 153°
2026-05-05 19:15 48.86001 10.24214 30041 ft 431 kts 153°
2026-05-05 19:15 48.83422 10.26411 30299 ft 431 kts 153°
2026-05-05 19:16 48.80809 10.28636 30525 ft 431 kts 153°
2026-05-05 19:16 48.78195 10.30863 30763 ft 431 kts 153°
2026-05-05 19:16 48.75540 10.33124 31008 ft 431 kts 153°
2026-05-05 19:16 48.72960 10.35313 31257 ft 431 kts 153°
2026-05-05 19:17 48.70343 10.37529 31483 ft 431 kts 153°
2026-05-05 19:17 48.67722 10.39745 31722 ft 431 kts 153°
2026-05-05 19:17 48.65100 10.41962 31966 ft 431 kts 153°
2026-05-05 19:17 48.62482 10.44173 32205 ft 431 kts 153°
2026-05-05 19:18 48.59858 10.46385 32406 ft 431 kts 155°
2026-05-05 19:18 48.57250 10.48582 32649 ft 431 kts 155°
2026-05-05 19:18 48.54621 10.50797 32903 ft 431 kts 155°
2026-05-05 19:18 48.52008 10.52994 33147 ft 430 kts 155°
2026-05-05 19:19 48.49392 10.55193 33381 ft 430 kts 155°
2026-05-05 19:19 48.46778 10.57384 33624 ft 430 kts 155°
2026-05-05 19:19 48.44168 10.59570 33866 ft 429 kts 155°
2026-05-05 19:19 48.41553 10.61759 34077 ft 429 kts 155°
2026-05-05 19:20 48.38945 10.63935 34285 ft 429 kts 155°
2026-05-05 19:20 48.36338 10.66105 34501 ft 428 kts 155°
2026-05-05 19:20 48.33781 10.68232 34721 ft 428 kts 155°
2026-05-05 19:20 48.31167 10.70403 34819 ft 430 kts 155°
2026-05-05 19:21 48.25890 10.74783 34837 ft 437 kts 155°
2026-05-05 19:21 48.20536 10.79218 34840 ft 442 kts 156°
2026-05-05 19:22 48.15165 10.83658 34838 ft 445 kts 156°
2026-05-05 19:22 48.09777 10.88114 34838 ft 445 kts 156°
2026-05-05 19:23 48.04353 10.92583 34844 ft 445 kts 156°
2026-05-05 19:23 47.98924 10.97044 34864 ft 445 kts 156°
2026-05-05 19:24 47.93489 11.01494 34868 ft 445 kts 156°
2026-05-05 19:24 47.88055 11.05935 34830 ft 446 kts 157°
2026-05-05 19:25 47.82611 11.10361 34844 ft 446 kts 157°
2026-05-05 19:25 47.77158 11.14785 34856 ft 446 kts 157°
2026-05-05 19:26 47.71710 11.19214 34856 ft 447 kts 157°
2026-05-05 19:26 47.66259 11.23627 34847 ft 447 kts 157°
2026-05-05 19:27 47.60796 11.28035 34859 ft 447 kts 157°
2026-05-05 19:27 47.55329 11.32433 34853 ft 447 kts 157°
2026-05-05 19:28 47.49853 11.36827 34828 ft 448 kts 157°
2026-05-05 19:28 47.44376 11.41226 34843 ft 448 kts 156°
2026-05-05 19:29 47.38888 11.45624 34848 ft 449 kts 157°
2026-05-05 19:29 47.33388 11.50011 34851 ft 450 kts 157°
2026-05-05 19:30 47.27884 11.54383 34851 ft 449 kts 157°
2026-05-05 19:30 47.22382 11.58752 34858 ft 449 kts 157°
2026-05-05 19:31 47.16875 11.63111 34833 ft 450 kts 156°
2026-05-05 19:31 46.99637 11.74653 34910 ft 440 kts 178°
2026-05-05 19:32 46.75439 11.73639 34953 ft 436 kts 186°
2026-05-05 19:32 46.51204 11.72309 34986 ft 436 kts 187°
2026-05-05 19:33 46.27006 11.70975 34976 ft 435 kts 188°
2026-05-05 19:33 46.02810 11.69695 34994 ft 436 kts 188°
2026-05-05 19:34 45.78763 11.68417 35019 ft 435 kts 188°
2026-05-05 19:35 45.42681 11.66103 35023 ft 431 kts 190°
2026-05-05 19:35 45.18696 11.64373 35004 ft 432 kts 190°
2026-05-05 19:36 44.94394 11.65170 35022 ft 438 kts 186°
2026-05-05 19:36 44.70082 11.66271 35009 ft 437 kts 186°
2026-05-05 19:37 44.45734 11.68953 35007 ft 443 kts 180°
2026-05-05 19:37 44.21228 11.73806 34986 ft 446 kts 180°
2026-05-05 19:38 43.96632 11.78708 34962 ft 447 kts 179°
2026-05-05 19:38 43.71944 11.83999 35003 ft 456 kts 174°
2026-05-05 19:39 43.47155 11.92186 35020 ft 457 kts 175°
2026-05-05 19:39 43.34741 11.96093 34341 ft 464 kts 175°
2026-05-05 19:39 43.30672 11.97332 33425 ft 460 kts 176°
2026-05-05 19:39 43.27597 11.98225 32736 ft 446 kts 175°
2026-05-05 19:40 43.24549 11.99180 31436 ft 453 kts 173°
2026-05-05 19:40 43.21492 12.00179 30309 ft 450 kts 173°
2026-05-05 19:40 43.18460 12.01183 28986 ft 445 kts 172°
2026-05-05 19:40 43.15465 12.02164 27774 ft 439 kts 172°
2026-05-05 19:41 43.12519 12.03113 26681 ft 432 kts 172°
2026-05-05 19:41 43.07932 12.04561 25070 ft 420 kts 171°
2026-05-05 19:41 43.02337 12.06290 23799 ft 410 kts 170°
2026-05-05 19:41 42.97035 12.07928 21856 ft 405 kts 170°
2026-05-05 19:42 42.94302 12.08773 21535 ft 402 kts 171°
2026-05-05 19:42 42.91579 12.09617 21279 ft 401 kts 170°
2026-05-05 19:42 42.88881 12.10458 20874 ft 395 kts 171°
2026-05-05 19:42 42.86213 12.11288 20399 ft 392 kts 171°
2026-05-05 19:43 42.83567 12.12112 19929 ft 389 kts 171°
2026-05-05 19:43 42.80958 12.12926 19712 ft 378 kts 171°
2026-05-05 19:43 42.78435 12.13714 19579 ft 366 kts 171°
2026-05-05 19:43 42.75998 12.14473 19459 ft 354 kts 171°
2026-05-05 19:44 42.73635 12.15206 19328 ft 343 kts 171°
2026-05-05 19:44 42.71346 12.15917 19191 ft 333 kts 171°
2026-05-05 19:44 42.69163 12.16961 18951 ft 333 kts 157°
2026-05-05 19:44 42.67137 12.18522 18543 ft 336 kts 154°
2026-05-05 19:45 42.65124 12.20129 18123 ft 335 kts 154°
2026-05-05 19:45 42.63123 12.21737 17724 ft 333 kts 154°
2026-05-05 19:45 42.61140 12.23333 17342 ft 331 kts 154°
2026-05-05 19:45 42.59160 12.24924 16955 ft 329 kts 154°
2026-05-05 19:46 42.57198 12.26493 16574 ft 328 kts 154°
2026-05-05 19:46 42.55234 12.28061 16205 ft 326 kts 154°
2026-05-05 19:46 42.53285 12.29618 15881 ft 324 kts 154°
2026-05-05 19:46 42.51291 12.31018 15450 ft 318 kts 166°
2026-05-05 19:47 42.49175 12.31546 14899 ft 305 kts 185°
2026-05-05 19:47 42.47120 12.31116 14278 ft 297 kts 199°
2026-05-05 19:47 42.45128 12.30378 13635 ft 295 kts 199°
2026-05-05 19:47 42.43160 12.29642 12958 ft 293 kts 198°
2026-05-05 19:48 42.41204 12.28912 12309 ft 290 kts 198°
2026-05-05 19:48 42.39276 12.28193 11674 ft 286 kts 198°
2026-05-05 19:48 42.37356 12.27477 11021 ft 284 kts 198°
2026-05-05 19:48 42.35463 12.26774 10412 ft 281 kts 197°
2026-05-05 19:49 42.33583 12.26075 9748 ft 280 kts 197°
2026-05-05 19:49 42.32347 12.25616 9304 ft 278 kts 197°
2026-05-05 19:49 42.29872 12.24703 8437 ft 273 kts 197°
2026-05-05 19:49 42.28049 12.24030 7769 ft 271 kts 196°
2026-05-05 19:50 42.26245 12.23366 7243 ft 264 kts 195°
2026-05-05 19:50 42.24503 12.22725 6793 ft 255 kts 196°
2026-05-05 19:50 42.22851 12.22113 6638 ft 235 kts 195°
2026-05-05 19:50 42.21302 12.21539 6567 ft 229 kts 195°
2026-05-05 19:51 42.19775 12.20975 6468 ft 226 kts 195°
2026-05-05 19:51 42.18255 12.20418 6370 ft 227 kts 195°
2026-05-05 19:51 42.16741 12.19864 6268 ft 224 kts 195°
2026-05-05 19:51 42.15246 12.19315 6169 ft 222 kts 195°
2026-05-05 19:52 42.13752 12.18769 6049 ft 224 kts 195°
2026-05-05 19:52 42.12248 12.18228 5820 ft 223 kts 195°
2026-05-05 19:52 42.10751 12.17692 5560 ft 222 kts 195°
2026-05-05 19:52 42.09270 12.17158 5258 ft 219 kts 195°
2026-05-05 19:53 42.07771 12.16706 4899 ft 223 kts 184°
2026-05-05 19:53 42.06242 12.17035 4498 ft 225 kts 164°
2026-05-05 19:53 42.04756 12.17667 4179 ft 223 kts 163°
2026-05-05 19:53 42.03284 12.18293 3876 ft 221 kts 163°
2026-05-05 19:54 42.01821 12.18911 3555 ft 219 kts 164°
2026-05-05 19:54 42.00382 12.19518 3272 ft 216 kts 164°
2026-05-05 19:54 41.98977 12.20110 2976 ft 206 kts 164°
2026-05-05 19:54 41.97646 12.20670 2713 ft 195 kts 164°
2026-05-05 19:55 41.96395 12.21196 2485 ft 185 kts 163°
2026-05-05 19:55 41.95209 12.21695 2231 ft 172 kts 165°
2026-05-05 19:55 41.94116 12.22155 1993 ft 157 kts 164°
2026-05-05 19:55 41.93108 12.22578 1798 ft 148 kts 163°
2026-05-05 19:56 41.92139 12.22985 1604 ft 145 kts 164°
2026-05-05 19:56 41.91179 12.23385 1413 ft 145 kts 163°
2026-05-05 19:56 41.90222 12.23788 1184 ft 143 kts 163°
2026-05-05 19:56 41.89269 12.24193 983 ft 145 kts 162°
2026-05-05 19:57 41.88316 12.24597 803 ft 141 kts 161°
2026-05-05 19:57 41.87696 12.24863 696 ft 141 kts 161°
2026-05-05 19:57 41.86755 12.25248 507 ft 141 kts 160°
2026-05-05 19:57 41.85813 12.25636 306 ft 141 kts 161°
2026-05-05 19:58 41.84878 12.26039 127 ft 140 kts 160°
2026-05-05 19:58 41.83960 12.26426 22 ft 130 kts 161°
2026-05-05 19:58 41.83253 12.26715 20 ft 81 kts 162°
2026-05-05 19:58 41.82927 12.26843 23 ft 28 kts 168°
2026-05-05 19:59 41.82780 12.26868 24 ft 14 kts 178°
2026-05-05 19:59 41.82680 12.26859 22 ft 16 kts 191°
2026-05-05 19:59 41.82558 12.26826 19 ft 19 kts 193°
2026-05-05 19:59 41.82441 12.26791 17 ft 12 kts 192°
2026-05-05 20:00 41.82346 12.26778 16 ft 15 kts 174°
2026-05-05 20:00 41.82237 12.26814 15 ft 17 kts 163°
2026-05-05 20:00 41.82115 12.26866 16 ft 19 kts 162°
2026-05-05 20:00 41.81991 12.26919 17 ft 19 kts 165°
2026-05-05 20:01 41.81860 12.26972 15 ft 20 kts 162°
2026-05-05 20:01 41.81725 12.27027 19 ft 22 kts 164°
2026-05-05 20:01 41.81564 12.27097 20 ft 26 kts 162°
2026-05-05 20:01 41.81391 12.27168 20 ft 26 kts 163°
2026-05-05 20:02 41.81210 12.27244 16 ft 27 kts 162°
2026-05-05 20:02 41.81035 12.27317 14 ft 21 kts 162°
2026-05-05 20:02 41.80905 12.27348 15 ft 18 kts 186°
2026-05-05 20:02 41.80776 12.27322 14 ft 20 kts 189°
2026-05-05 20:03 41.80672 12.27260 16 ft 15 kts 229°
2026-05-05 20:03 41.80626 12.27119 15 ft 20 kts 251°
2026-05-05 20:03 41.80572 12.26925 17 ft 25 kts 250°
2026-05-05 20:03 41.80505 12.26683 14 ft 30 kts 250°
2026-05-05 20:04 41.80448 12.26475 15 ft 17 kts 250°
2026-05-05 20:04 41.80380 12.26371 16 ft 16 kts 191°
2026-05-05 20:04 41.80274 12.26404 15 ft 15 kts 162°
2026-05-05 20:04 41.80178 12.26384 18 ft 15 kts 204°
2026-05-05 20:05 41.80070 12.26318 17 ft 18 kts 204°
2026-05-05 20:05 41.79957 12.26248 20 ft 18 kts 204°
2026-05-05 20:05 41.79837 12.26174 18 ft 20 kts 205°
2026-05-05 20:05 41.79766 12.26091 17 ft 14 kts 265°
2026-05-05 20:06 41.79797 12.25976 16 ft 13 kts 294°
2026-05-05 20:06 41.79827 12.25882 16 ft 9 kts 283°
2026-05-05 20:06 41.79797 12.25822 16 ft 7 kts 228°
2026-05-05 20:06 41.79767 12.25777 16 ft 6 kts 228°
2026-05-05 20:07 41.79748 12.25736 16 ft 5 kts 260°
2026-05-05 20:07 41.79757 12.25694 17 ft 4 kts 296°
2026-05-05 20:07 41.79767 12.25667 16 ft 0 kts 295°